{"data":{"norad_id":58408,"intl_designator":"2023-180G","name":"STARLINK-30906","alt_names":[],"object_type":"PAYLOAD","status":"ACTIVE","operator":null,"country":"US","launch_date":"2023-11-22","launch_site_code":"AFETR","launch_vehicle":null,"mission":null,"orbit_class":"UNKNOWN","rcs_meters":null,"size_class":null,"mass_kg":null,"dimensions":null,"purposes":["comms"],"wikipedia_slug":null,"has_3d_model":false,"image_url":null,"decayed_at":null,"tle_current":{"epoch":"2026-09-20T19:47:36.553632Z","epoch_age_seconds":118762,"freshness":"FRESH","line1":"1 58408U 23180G   26263.82472863  .00000108  00000+0  13461-4 0  9995","line2":"2 58408  43.0049  34.2679 0001829 286.5479  73.5172 15.27577776157315","mean_motion":15.27577776,"eccentricity":0.0001829,"inclination_deg":43.0049,"raan_deg":34.2679,"arg_perigee_deg":286.5479,"mean_anomaly_deg":73.5172,"bstar":1.3461e-5,"rev_number":15731,"period_min":94.266885956581,"perigee_km":481.80084334883,"apogee_km":484.31066765879,"semimajor_km":6861.1927555038,"source":"CELESTRAK","updated_at":"2026-09-21T09:00:33.870659Z"}}}